[[{"header":{"parameterUnit":"m.s-1","parameterCategory":1,"la1":30.2991,"la2":30.254,"lo1":-89.0895,"lo2":-89.0444,"dy":0.0017,"dx":0.0017,"nx":28,"ny":28,"refTime":"2025-05-01T03:00:00:Z","depth":0,"parameterNumber":2,"parameterNumberName":"U-component_of_WINDS"},"data":[0,0,0,0,0,0,0,0,0,0,0,0,0,0,0,0,0,0,0,0,0,0,0,0,0,0,0,0,0,0,0,0,0,0,0,0,0,0,0,0,0,0,0,0,0,0,0,0,0,0,0,0,0,0,0,0,0,0,-4.4568,-4.4575,0,-4.5223,-4.5231,-4.5238,-4.548,-4.5478,-4.5476,-4.5474,-4.6128,-4.6146,-4.6166,0,0,0,0,0,0,0,0,0,0,0,0,0,-4.3511,-4.3529,-4.4567,-4.4576,-4.4584,-4.5222,-4.5231,-4.524,-4.548,-4.5478,-4.5475,-4.5473,-4.6121,-4.6144,-4.6167,0,0,0,0,0,0,0,0,0,0,0,0,0,-4.4048,-4.3535,-4.4566,-4.4781,-4.4807,-4.522,-4.5231,-4.5242,-4.5481,-4.5478,-4.5474,-4.5472,-4.6114,-4.6142,-4.617,-4.6413,0,0,-4.6259,-4.6272,0,0,0,0,0,0,0,0,-4.4017,-4.4086,-4.4741,-4.4767,-4.4797,-4.5267,-4.5099,-4.5634,-4.5482,-4.5224,-4.5474,-4.547,-4.5843,-4.5894,-4.6023,-4.6443,-4.6471,-4.6262,-4.6279,-4.6292,-4.63,0,0,0,0,0,0,0,-4.3979,-4.4059,-4.4827,-4.475,-4.4785,-4.4841,-4.4913,-4.5201,-4.5542,-4.5247,-4.5266,-4.5341,-4.5857,-4.5994,-4.604,-4.6481,-4.6261,-4.6287,-4.6305,-4.6316,-4.7132,-4.7136,0,0,0,0,0,0,-4.3908,-4.4027,-4.4806,-4.4846,-4.4392,-4.4862,-4.4944,-4.5119,-4.554,-4.5602,-4.5343,-4.535,-4.5946,-4.6006,-4.6064,-4.6376,-4.6292,-4.6319,-4.6336,-4.7128,-4.7133,-4.7138,0,0,0,0,0,0,-4.3885,-4.3976,-4.4779,-4.4442,-4.4549,-4.4884,-4.5079,-4.5133,-4.5272,-4.5614,-4.5674,-4.5422,-4.5946,-4.6023,-4.6326,-4.6402,-4.6332,-4.6358,-4.7123,-4.713,-4.7136,-4.7,0,0,0,0,0,0,-4.3853,-4.3966,-4.4064,-4.4443,-4.4566,-4.5034,-4.5084,-4.5149,-4.5323,-4.5338,-4.5703,-4.576,-4.595,-4.6281,-4.6354,-4.6441,-4.6381,-4.7118,-4.7126,-4.7134,-4.6999,-4.7001,-4.7002,0,0,0,0,0,-4.3815,-4.3996,-4.4068,-4.4161,-4.4697,-4.5038,-4.5108,-4.5327,-4.5328,-4.5428,-4.5648,-4.5749,-4.6382,-4.631,-4.6395,-4.649,-4.7114,-4.7124,-4.7133,-4.6998,-4.7,-4.7002,0,0,0,0,0,0,-4.3612,-4.405,-4.4134,-4.4445,-4.4703,-4.5078,-4.5211,-4.5322,-4.5581,-4.5584,-4.584,-4.592,-4.6201,-4.6377,-4.6288,-4.6747,-4.6754,-4.6781,-4.6622,-4.6627,-4.6629,-4.658,-4.6405,0,0,0,0,0,-4.3604,-4.3849,-4.4217,-4.4454,-4.4581,-4.4873,-4.5029,-4.5177,-4.5452,-4.5561,-4.5803,-4.6062,-4.632,-4.6483,-4.6739,-4.7026,-4.7107,-4.7133,-4.7135,-4.7134,-4.7154,-4.7318,-4.7333,-4.7169,-4.7169,-4.7169,0,0,-4.3589,-4.3858,-4.3996,-4.4421,-4.4639,-4.4882,-4.4963,-4.5217,-4.5399,-4.5598,-4.59,-4.6086,-4.6392,-4.6687,-4.6829,-4.6842,-4.7218,-4.7147,-4.7144,-4.7165,-4.7329,-4.7344,-4.7357,-4.7176,-4.7175,-4.7174,0,0,-4.3686,-4.3915,-4.414,-4.4357,-4.4688,-4.4882,-4.4935,-4.5296,-4.5429,-4.5737,-4.5891,-4.6108,-4.6547,-4.6759,-4.6924,-4.7103,-4.7204,-4.7178,-4.7186,-4.7342,-4.7355,-4.7368,-4.743,-4.7449,-4.7197,-4.7196,-4.7196,0,-4.3623,-4.4002,-4.4239,-4.4488,-4.4668,-4.4866,-4.5092,-4.529,-4.5684,-4.5802,-4.5812,-4.6368,-4.6588,-4.6935,-4.6979,-4.7106,-4.7172,-4.7137,-4.7335,-4.735,-4.7365,-4.7428,-4.745,-4.7191,-4.7192,-4.7192,-4.7193,0,-4.3909,-4.4168,-4.4309,-4.4692,-4.4889,-4.5123,-4.5392,-4.5562,-4.5692,-4.5883,-4.6192,-4.6464,-4.6778,-4.6872,-4.6998,-4.7237,-4.7235,-4.7286,-4.7299,-4.7372,-4.7434,-4.746,-4.7183,-4.7185,-4.7187,-4.7188,0,0,-4.3893,-4.4408,-4.4455,-4.4631,-4.5011,-4.5214,-4.5457,-4.5771,-4.5911,-4.6176,-4.6384,-4.6751,-4.6803,-4.6989,-4.7142,-4.7279,-4.7402,-4.7315,-4.7326,-4.732,-4.768,-4.7637,-4.7661,-4.7473,-4.7478,-4.7483,-4.7654,0,-4.4039,-4.4489,-4.471,-4.5061,-4.5303,-4.5495,-4.5706,-4.5959,-4.6144,-4.6372,-4.6574,-4.6831,-4.688,-4.6994,-4.7139,-4.7356,-4.7477,-4.7347,-4.7663,-4.7672,-4.758,-4.7695,-4.7651,-4.78,-4.768,-4.7684,-4.7687,0,-4.427,-4.454,-4.4916,-4.5271,-4.538,-4.5567,-4.5872,-4.609,-4.6379,-4.6504,-4.6714,-4.6864,-4.7121,-4.7116,-4.7473,-4.738,-4.7522,-4.7648,-4.7659,-4.7695,-4.7682,-4.7732,-4.7852,-4.7873,-4.7728,-4.7725,-4.7722,0,-4.4219,-4.4677,-4.4963,-4.5107,-4.5527,-4.5654,-4.5833,-4.6121,-4.6296,-4.6561,-4.6676,-4.6964,-4.7121,-4.7339,-4.756,-4.7536,-4.7895,-4.7908,-4.8002,-4.7996,-4.8067,-4.8059,-4.821,-4.816,-4.816,-4.8159,-4.8159,0,-4.4358,-4.458,-4.4946,-4.512,-4.5375,-4.5625,-4.5868,-4.6061,-4.6316,-4.6528,-4.6709,-4.6903,-4.7185,-4.7413,-4.7587,-4.7855,-4.7924,-4.8029,-4.8072,-4.8013,-4.7999,-4.8108,-4.8103,-4.8166,-4.8164,-4.8163,-4.8162,0,-4.4343,-4.4598,-4.4921,-4.5294,-4.5393,-4.5563,-4.588,-4.6055,-4.625,-4.6517,-4.6593,-4.6897,-4.7176,-4.7419,-4.7784,-4.7901,-4.8176,-4.8229,-4.8079,-4.8103,-4.8182,-4.8171,-4.8407,-4.845,-4.837,-4.8371,-4.8371,0,-4.4414,-4.4591,-4.4985,-4.5144,-4.5322,-4.5574,-4.5755,-4.6008,-4.6187,-4.6532,-4.6664,-4.6957,-4.7205,-4.7639,-4.7889,-4.8168,-4.8229,-4.8293,-4.8272,-4.8207,-4.8229,-4.8215,-4.8233,-4.8291,-4.8291,-4.829,-4.829,0,-4.4513,-4.4631,-4.4889,-4.5191,-4.5403,-4.5651,-4.5904,-4.6021,-4.632,-4.6512,-4.6803,-4.6995,-4.7372,-4.7658,-4.7967,-4.8146,-4.8266,-4.8296,-4.8332,-4.8272,-4.8178,-4.8229,-4.8077,-4.8288,-4.8288,-4.8289,-4.8289,-4.8289,-4.4544,-4.471,-4.5015,-4.5295,-4.5513,-4.5745,-4.5929,-4.615,-4.6399,-4.6729,-4.6862,-4.7156,-4.7441,-4.7869,-4.8048,-4.8278,-4.8299,-4.8351,-4.8364,-4.8373,-4.8363,-4.8142,-4.8335,-4.8335,-4.8336,-4.8336,-4.8336,0,-4.4651,-4.4858,-4.5113,-4.5465,-4.5684,-4.5787,-4.6072,-4.6247,-4.6507,-4.6765,-4.7007,-4.734,-4.7619,-4.7892,-4.8185,-4.8317,-4.8379,-4.8385,-4.8377,-4.8416,-4.8328,-4.8268,-4.8329,-4.8329,-4.8329,-4.8329,-4.8329,-4.8329,-4.4733,-4.502,-4.5174,-4.557,-4.5774,-4.607,-4.6224,-4.6438,-4.6647,-4.7012,-4.7248,-4.7427,-4.7691,-4.8005,-4.8264,-4.8337,-4.8435,-4.8425,-4.8511,-4.8424,-4.8422,-4.8419,-4.8364,-4.8445,-4.8445,-4.8581,-4.8582,-4.8582]},{"header":{"parameterUnit":"m.s-1","parameterCategory":1,"la1":30.2991,"la2":30.254,"lo1":-89.0895,"lo2":-89.0444,"dy":0.0017,"dx":0.0017,"nx":28,"ny":28,"refTime":"2025-05-01T03:00:00:Z","depth":0,"parameterNumber":3,"parameterNumberName":"V-component_of_WINDS"},"data":[0,0,0,0,0,0,0,0,0,0,0,0,0,0,0,0,0,0,0,0,0,0,0,0,0,0,0,0,0,0,0,0,0,0,0,0,0,0,0,0,0,0,0,0,0,0,0,0,0,0,0,0,0,0,0,0,0,0,4.6836,4.6841,0,4.7322,4.7328,4.7333,4.7461,4.7458,4.7455,4.7452,4.7946,4.7962,4.7977,0,0,0,0,0,0,0,0,0,0,0,0,0,4.6015,4.6029,4.6835,4.6842,4.6848,4.7321,4.7328,4.7335,4.7462,4.7458,4.7454,4.7451,4.7941,4.796,4.7979,0,0,0,0,0,0,0,0,0,0,0,0,0,4.6423,4.6034,4.6834,4.6968,4.6985,4.732,4.7328,4.7336,4.7462,4.7458,4.7454,4.7449,4.7935,4.7958,4.7981,4.8217,0,0,4.8054,4.8065,0,0,0,0,0,0,0,0,4.64,4.6453,4.6942,4.696,4.6979,4.7327,4.722,4.7631,4.7463,4.7281,4.7452,4.7447,4.7743,4.7783,4.7883,4.824,4.8261,4.8056,4.8071,4.8081,4.8088,0,0,0,0,0,0,0,4.6371,4.6433,4.7028,4.6949,4.6972,4.7003,4.7056,4.7298,4.7531,4.7297,4.7307,4.7363,4.7752,4.786,4.7896,4.8268,4.8056,4.8077,4.8092,4.8101,4.8844,4.8849,0,0,0,0,0,0,4.632,4.6408,4.7012,4.7043,4.6673,4.7022,4.7081,4.7219,4.7529,4.7572,4.7366,4.7367,4.7822,4.7868,4.7914,4.8212,4.8081,4.8103,4.8117,4.8838,4.8845,4.8851,0,0,0,0,0,0,4.6302,4.6373,4.6993,4.6729,4.681,4.704,4.7195,4.7231,4.7339,4.7581,4.7623,4.7434,4.782,4.788,4.8141,4.8231,4.8114,4.8136,4.8832,4.884,4.8848,4.8809,0,0,0,0,0,0,4.6278,4.6366,4.6458,4.673,4.6824,4.7213,4.72,4.7244,4.7381,4.7386,4.7656,4.7696,4.7821,4.8105,4.8165,4.8262,4.8154,4.8825,4.8836,4.8845,4.8803,4.8814,4.8824,0,0,0,0,0,4.6248,4.6426,4.6462,4.6534,4.6944,4.7218,4.7272,4.7413,4.7387,4.7482,4.7638,4.7688,4.821,4.8131,4.8199,4.8304,4.882,4.8833,4.8844,4.8798,4.8812,4.8824,0,0,0,0,0,0,4.6159,4.6465,4.6508,4.6779,4.6972,4.7239,4.7364,4.7423,4.7627,4.7623,4.7788,4.7848,4.8098,4.8227,4.8133,4.8549,4.8515,4.8542,4.8457,4.8472,4.8482,4.8448,4.8174,0,0,0,0,0,4.617,4.6368,4.6624,4.6839,4.6934,4.7131,4.7256,4.7348,4.7554,4.7636,4.7811,4.8007,4.8216,4.8351,4.8556,4.882,4.8882,4.8926,4.8937,4.8944,4.8967,4.9118,4.9141,4.8891,4.8891,4.889,0,0,4.6197,4.6389,4.6503,4.6826,4.6987,4.7188,4.7199,4.7411,4.7562,4.7668,4.7927,4.8061,4.8291,4.8555,4.868,4.867,4.9049,4.896,4.8964,4.8983,4.9133,4.9156,4.9177,4.8899,4.8898,4.8896,0,0,4.635,4.6513,4.6712,4.6872,4.7115,4.7245,4.7292,4.7552,4.7646,4.7908,4.7992,4.8172,4.8528,4.8689,4.8818,4.903,4.9084,4.9091,4.9149,4.9294,4.9314,4.9332,4.9411,4.9436,4.9112,4.9112,4.9112,0,4.6353,4.666,4.6806,4.7016,4.7155,4.726,4.7463,4.7611,4.7907,4.8001,4.7985,4.8435,4.8597,4.8902,4.8954,4.9053,4.9113,4.9064,4.9299,4.9319,4.9339,4.9415,4.9444,4.9111,4.9111,4.9111,4.9112,0,4.6653,4.6864,4.6995,4.7281,4.7435,4.7639,4.7816,4.7954,4.8031,4.8163,4.8428,4.8626,4.8875,4.8952,4.903,4.9269,4.9255,4.9267,4.9237,4.936,4.9435,4.9465,4.9111,4.9111,4.9111,4.9111,0,0,4.6767,4.713,4.7176,4.7307,4.7582,4.7748,4.7956,4.8201,4.8317,4.8516,4.8697,4.8994,4.9008,4.9153,4.9249,4.9376,4.9535,4.9373,4.9381,4.9399,4.9813,4.9805,4.9837,4.957,4.9576,4.9581,4.9794,0,4.6956,4.7335,4.7472,4.7783,4.7981,4.8083,4.8264,4.8452,4.8579,4.8765,4.8905,4.9115,4.9115,4.9204,4.9334,4.9488,4.962,4.9474,4.974,4.9748,4.9684,4.9876,4.9869,5.006,4.9824,4.9829,4.9833,0,4.723,4.7435,4.7766,4.8017,4.8105,4.8267,4.8502,4.8678,4.8892,4.8976,4.9138,4.9225,4.9446,4.9399,4.9707,4.9604,4.972,4.9811,4.9822,4.9856,4.9801,4.9918,5.0125,5.0155,4.988,4.9876,4.9873,0,4.7283,4.7642,4.7887,4.7996,4.8294,4.8405,4.8534,4.8745,4.8883,4.9087,4.9179,4.9404,4.9529,4.9701,4.9847,4.9799,5.0142,5.0106,5.0218,5.0215,5.029,5.0284,5.0522,5.0357,5.0356,5.0356,5.0355,0,4.7484,4.7683,4.7916,4.8067,4.8293,4.8447,4.8667,4.8802,4.8988,4.9167,4.9265,4.9431,4.9611,4.9799,4.9913,5.0152,5.0206,5.028,5.0309,5.0275,5.0265,5.0356,5.0348,5.0364,5.0362,5.036,5.0359,0,4.7585,4.7748,4.8023,4.8282,4.8352,4.8507,4.873,4.888,4.901,4.9235,4.9297,4.9502,4.9729,4.989,5.0181,5.0257,5.0515,5.0541,5.0444,5.0459,5.0563,5.0553,5.0872,5.0923,5.0718,5.072,5.0721,0,4.7704,4.786,4.8136,4.8264,4.8394,4.8597,4.8739,4.8895,4.9039,4.9295,4.9414,4.9648,4.9844,5.0201,5.0375,5.0598,5.0633,5.0729,5.0667,5.0628,5.0639,5.063,5.0647,5.0739,5.0741,5.0742,5.0743,0,4.79,4.7973,4.8174,4.8405,4.8571,4.876,4.8949,4.9047,4.9237,4.9392,4.9627,4.9779,5.0077,5.0308,5.0548,5.0679,5.0744,5.076,5.0799,5.0767,5.0706,5.0744,5.0473,5.0753,5.0752,5.0751,5.0751,5.075,4.8017,4.8162,4.8379,4.86,4.8759,4.8934,4.9088,4.9238,4.9437,4.9694,4.9772,5.0016,5.0225,5.0555,5.0689,5.088,5.0875,5.093,5.0945,5.0957,5.0958,5.0671,5.0924,5.0924,5.0924,5.0924,5.0924,0,4.8222,4.8366,4.8568,4.8831,4.9004,4.9049,4.926,4.9403,4.9617,4.9807,4.9998,5.0267,5.0491,5.0682,5.0915,5.1031,5.1066,5.1087,5.1083,5.1112,5.0947,5.0893,5.1055,5.1055,5.1055,5.1055,5.1055,5.1055,4.8349,4.8597,4.8695,4.9022,4.9165,4.9406,4.9523,4.9685,4.9838,5.0135,5.0322,5.0445,5.0637,5.0883,5.1091,5.1141,5.1223,5.1238,5.1295,5.1139,5.1123,5.1109,5.1059,5.1254,5.1254,5.1445,5.1447,5.1448]}]]